Starlink 5873

operational
NORAD ID: 56490 Int'l Des: 2023-064 Owner: SPXS Country: US Constellation: starlink
LEOCIRCULAR

Über Starlink 5873

Beschreibung wird geladen...

Live-Position

3D-Globus wird geladen...

Nächste Überflüge

Höhenverlauf

Altitude vs Time

uPlot chart will show altitude changes over time

Zweizeiliger Elementsatz

1 56490U 23064AU 25306.47769412 -.00001026 00000-0 -78228-4 0 9997
2 56490 69.9990 65.3526 0002992 266.2425 93.8392 14.98322967137178
Epoch: 2. Nov. 2025 • Age: 36 hours

Aktueller Status

Höhe 577.2 km
Geschwindigkeit 7.57 km/s
Subsatellitenpunkt -16.28°S, 149.72°W
Startdatum 10. Mai 2023
Alter 2.4 years
Typ internet

Technische Details

Klassifizierung Payload
Masse 305.00 kg
Trockenmasse 290.00 kg
Gesamtmasse 305.00 kg
Länge 0.20 m
Durchmesser 2.80 m
Spannweite 9.00 m
Form Box + pan
Hersteller SPXS
Bus-Typ Starlink
Phasenstatus In Orbit
Besitzer/Staat SPXS/US

Große Konstellationen

Loading constellations...